QPF
0.00 0.00 0.00 0.00 0.00 0.00 0.00 0.01 0.01 0.00 0.00 0.00 0.00 0.01 0.01 0.01 0.00 0.00 0.00 0.01 0.01 0.01 0.02 0.01 0.02 0.02 0.02 0.01 0.02 0.02 0.02 0.03 0.03 0.04 0.06 0.07 0.09 0.09 0.09 0.09 0.08 0.09 0.09 0.08
0.00 0.00 0.00 0.00 0.00 0.00 0.00 0.00 0.00 0.00 0.00 0.00 0.00 0.00 0.00 0.00 0.00 0.00 0.00 0.00 0.01 0.01 0.01 0.02 0.02 0.02 0.02 0.02 0.03 0.04 0.02 0.03 0.03 0.05 0.07 0.09 0.09 0.08 0.07 0.07 0.09 0.08 0.08 0.08
0.00 0.00 0.00 0.00 0.00 0.00 0.00 0.00 0.00 0.00 0.01 0.00 0.00 0.00 0.00 0.00 0.00 0.00 0.01 0.00 0.00 0.01 0.02 0.02 0.02 0.02 0.03 0.03 0.04 0.04 0.03 0.03 0.05 0.06 0.05 0.06 0.07 0.07 0.06 0.08 0.10 0.08 0.07 0.07
0.00 0.00 0.00 0.00 0.00 0.00 0.00 0.00 0.00 0.00 0.00 0.00 0.00 0.00 0.01 0.00 0.00 0.01 0.01 0.01 0.01 0.01 0.01 0.01 0.01 0.01 0.02 0.03 0.03 0.02 0.02 0.05 0.07 0.06 0.04 0.05 0.06 0.06 0.05 0.07 0.08 0.06 0.06 0.06
0.00 0.00 0.00 0.00 0.00 0.00 0.00 0.00 0.00 0.00 0.00 0.00 0.00 0.00 0.00 0.00 0.00 0.01 0.02 0.01 0.01 0.01 0.01 0.01 0.01 0.01 0.02 0.03 0.02 0.01 0.01 0.03 0.03 0.02 0.02 0.02 0.03 0.03 0.04 0.06 0.07 0.07 0.07 0.06
0.00 0.00 0.01 0.00 0.00 0.00 0.00 0.00 0.00 0.00 0.00 0.00 0.00 0.01 0.01 0.01 0.01 0.02 0.03 0.01 0.01 0.01 0.01 0.01 0.02 0.02 0.02 0.03 0.02 0.01 0.01 0.02 0.01 0.02 0.02 0.02 0.03 0.03 0.03 0.03 0.04 0.05 0.07 0.08
0.00 0.00 0.01 0.01 0.00 0.00 0.00 0.01 0.00 0.00 0.00 0.00 0.01 0.02 0.01 0.01 0.01 0.01 0.01 0.01 0.01 0.01 0.01 0.02 0.03 0.03 0.03 0.03 0.02 0.01 0.00 0.01 0.02 0.02 0.03 0.03 0.03 0.02 0.02 0.03 0.03 0.03 0.04 0.05
0.00 0.01 0.03 0.01 0.00 0.01 0.02 0.00 0.00 0.00 0.00 0.00 0.00 0.01 0.01 0.01 0.02 0.02 0.02 0.02 0.02 0.01 0.02 0.04 0.04 0.05 0.04 0.03 0.02 0.01 0.01 0.02 0.03 0.04 0.02 0.02 0.02 0.02 0.03 0.03 0.03 0.02 0.02 0.02
0.02 0.03 0.02 0.01 0.01 0.00 0.00 0.00 0.00 0.00 0.00 0.00 0.00 0.00 0.00 0.01 0.02 0.02 0.02 0.02 0.02 0.01 0.03 0.05 0.07 0.08 0.06 0.03 0.02 0.02 0.02 0.03 0.03 0.03 0.03 0.03 0.03 0.04 0.04 0.04 0.03 0.02 0.02 0.01
0.02 0.02 0.00 0.00 0.00 0.00 0.00 0.00 0.00 0.00 0.00 0.00 0.00 0.00 0.00 0.01 0.01 0.01 0.01 0.01 0.02 0.02 0.04 0.04 0.06 0.07 0.07 0.06 0.06 0.04 0.04 0.03 0.04 0.03 0.04 0.04 0.04 0.04 0.03 0.02 0.02 0.02 0.02 0.01
0.03 0.02 0.01 0.01 0.00 0.00 0.00 0.00 0.00 0.00 0.00 0.00 0.00 0.00 0.00 0.01 0.01 0.01 0.01 0.02 0.02 0.04 0.04 0.04 0.04 0.03 0.05 0.06 0.05 0.04 0.04 0.03 0.04 0.03 0.03 0.02 0.02 0.02 0.01 0.01 0.01 0.01 0.01 0.01
0.05 0.03 0.01 0.01 0.00 0.00 0.00 0.00 0.00 0.00 0.00 0.00 0.00 0.01 0.01 0.02 0.01 0.01 0.01 0.02 0.03 0.04 0.05 0.05 0.05 0.04 0.04 0.05 0.04 0.04 0.02 0.02 0.02 0.02 0.01 0.00 0.00 0.00 0.01 0.01 0.01 0.01 0.00 0.00
0.06 0.03 0.01 0.01 0.00 0.00 0.00 0.00 0.00 0.00 0.00 0.00 0.01 0.01 0.02 0.01 0.02 0.02 0.02 0.03 0.04 0.04 0.05 0.07 0.08 0.07 0.06 0.06 0.05 0.03 0.02 0.02 0.02 0.02 0.02 0.01 0.01 0.01 0.01 0.01 0.01 0.01 0.00 0.00
0.05 0.03 0.02 0.02 0.01 0.00 0.00 0.00 0.00 0.00 0.01 0.01 0.01 0.02 0.03 0.03 0.02 0.02 0.03 0.04 0.04 0.04 0.04 0.05 0.07 0.07 0.06 0.06 0.04 0.04 0.03 0.03 0.02 0.02 0.01 0.01 0.00 0.00 0.00 0.00 0.00 0.00 0.00 0.00
0.04 0.02 0.01 0.02 0.01 0.00 0.01 0.01 0.01 0.01 0.01 0.01 0.02 0.03 0.03 0.03 0.04 0.03 0.04 0.05 0.05 0.04 0.04 0.04 0.04 0.03 0.03 0.04 0.04 0.04 0.04 0.04 0.03 0.03 0.02 0.01 0.01 0.01 0.01 0.00 0.00 0.00 0.00 0.00
0.02 0.02 0.01 0.01 0.01 0.01 0.01 0.01 0.01 0.01 0.02 0.02 0.03 0.03 0.03 0.03 0.04 0.04 0.03 0.05 0.05 0.05 0.04 0.03 0.03 0.02 0.01 0.02 0.02 0.02 0.02 0.03 0.02 0.02 0.01 0.01 0.00 0.00 0.00 0.00 0.00 0.00 0.00 0.00
0.03 0.02 0.02 0.01 0.01 0.01 0.02 0.02 0.02 0.03 0.03 0.03 0.04 0.04 0.04 0.03 0.03 0.03 0.03 0.04 0.04 0.04 0.03 0.03 0.02 0.02 0.03 0.03 0.03 0.02 0.02 0.01 0.01 0.01 0.01 0.01 0.00 0.00 0.00 0.01 0.01 0.01 0.00 0.01
0.03 0.02 0.02 0.01 0.01 0.02 0.02 0.03 0.03 0.03 0.03 0.03 0.04 0.05 0.05 0.03 0.03 0.02 0.03 0.03 0.03 0.03 0.03 0.03 0.03 0.03 0.04 0.04 0.03 0.02 0.02 0.01 0.01 0.00 0.01 0.01 0.00 0.00 0.00 0.00 0.01 0.01 0.01 0.01
0.02 0.02 0.02 0.02 0.02 0.03 0.02 0.03 0.04 0.05 0.04 0.04 0.06 0.05 0.06 0.05 0.04 0.03 0.02 0.03 0.03 0.03 0.03 0.03 0.03 0.03 0.03 0.03 0.02 0.01 0.01 0.01 0.01 0.01 0.01 0.01 0.01 0.01 0.01 0.01 0.01 0.01 0.01 0.01
0.03 0.02 0.03 0.02 0.03 0.03 0.03 0.04 0.05 0.05 0.04 0.06 0.07 0.06 0.07 0.06 0.05 0.04 0.03 0.04 0.04 0.03 0.02 0.02 0.02 0.02 0.02 0.02 0.01 0.01 0.01 0.01 0.01 0.02 0.02 0.02 0.02 0.02 0.02 0.01 0.01 0.01 0.01 0.01
0.03 0.03 0.03 0.04 0.04 0.03 0.03 0.04 0.06 0.06 0.05 0.06 0.08 0.06 0.06 0.07 0.06 0.04 0.04 0.04 0.03 0.03 0.02 0.02 0.02 0.02 0.01 0.01 0.02 0.01 0.01 0.01 0.01 0.01 0.01 0.02 0.02 0.02 0.01 0.00 0.00 0.00 0.00 0.00
0.04 0.04 0.05 0.05 0.06 0.04 0.03 0.04 0.05 0.06 0.06 0.06 0.07 0.06 0.05 0.06 0.06 0.05 0.04 0.04 0.04 0.04 0.03 0.02 0.02 0.02 0.02 0.02 0.02 0.02 0.02 0.02 0.02 0.02 0.02 0.02 0.02 0.02 0.02 0.01 0.01 0.01 0.00 0.00
0.07 0.06 0.06 0.07 0.06 0.05 0.04 0.04 0.05 0.06 0.06 0.06 0.06 0.06 0.06 0.06 0.06 0.05 0.04 0.03 0.04 0.04 0.03 0.03 0.03 0.04 0.03 0.02 0.01 0.01 0.01 0.02 0.02 0.02 0.03 0.04 0.04 0.04 0.05 0.04 0.04 0.03 0.02 0.02
0.11 0.09 0.07 0.06 0.06 0.05 0.05 0.05 0.06 0.07 0.07 0.07 0.06 0.06 0.06 0.06 0.06 0.06 0.05 0.05 0.04 0.04 0.04 0.04 0.04 0.03 0.02 0.02 0.02 0.01 0.01 0.02 0.02 0.02 0.02 0.03 0.04 0.04 0.05 0.05 0.05 0.04 0.04 0.02
0.12 0.10 0.07 0.05 0.05 0.06 0.07 0.05 0.05 0.06 0.06 0.07 0.06 0.06 0.05 0.04 0.04 0.05 0.05 0.04 0.04 0.04 0.04 0.04 0.03 0.02 0.01 0.01 0.01 0.01 0.01 0.01 0.01 0.01 0.01 0.01 0.01 0.02 0.02 0.02 0.02 0.02 0.02 0.02
0.11 0.10 0.09 0.07 0.05 0.05 0.06 0.06 0.06 0.05 0.05 0.06 0.06 0.05 0.04 0.04 0.04 0.04 0.05 0.04 0.03 0.03 0.03 0.03 0.02 0.02 0.01 0.01 0.01 0.00 0.00 0.00 0.00 0.00 0.00 0.00 0.00 0.00 0.01 0.01 0.01 0.00 0.00 0.00
0.08 0.08 0.09 0.08 0.06 0.05 0.05 0.05 0.05 0.05 0.04 0.05 0.06 0.05 0.04 0.04 0.03 0.03 0.04 0.04 0.04 0.04 0.03 0.03 0.03 0.02 0.02 0.01 0.01 0.01 0.00 0.00 0.00 0.00 0.00 0.00 0.00 0.00 0.00 0.00 0.00 0.00 0.00 0.00
MSLP
1009.96 1010.16 1010.32 1010.45 1010.57 1010.68 1010.76 1010.79 1010.73 1010.57 1010.32 1009.98 1009.59 1009.18 1008.82 1008.55 1008.39 1008.37 1008.49 1008.73 1009.07 1009.46 1009.89 1010.33 1010.76 1011.19 1011.61 1012.03 1012.47 1012.92 1013.39 1013.87 1014.34 1014.80 1015.22 1015.60 1015.93 1016.20 1016.40 1016.55 1016.64 1016.67 1016.65 1016.58
1010.11 1010.19 1010.19 1010.14 1010.08 1010.01 1009.97 1009.93 1009.88 1009.80 1009.69 1009.53 1009.32 1009.09 1008.86 1008.65 1008.49 1008.41 1008.42 1008.53 1008.73 1009.02 1009.37 1009.79 1010.24 1010.73 1011.24 1011.77 1012.32 1012.88 1013.44 1013.99 1014.53 1015.04 1015.52 1015.96 1016.34 1016.66 1016.92 1017.11 1017.24 1017.30 1017.29 1017.23
1010.26 1010.25 1010.13 1009.95 1009.75 1009.57 1009.44 1009.37 1009.34 1009.35 1009.35 1009.33 1009.27 1009.16 1009.01 1008.82 1008.63 1008.46 1008.34 1008.30 1008.35 1008.51 1008.78 1009.16 1009.62 1010.16 1010.76 1011.40 1012.06 1012.72 1013.38 1014.01 1014.62 1015.19 1015.72 1016.20 1016.62 1016.98 1017.28 1017.50 1017.65 1017.73 1017.74 1017.69
1010.40 1010.35 1010.18 1009.93 1009.67 1009.44 1009.27 1009.20 1009.21 1009.28 1009.38 1009.47 1009.51 1009.47 1009.35 1009.15 1008.89 1008.61 1008.34 1008.14 1008.04 1008.07 1008.25 1008.57 1009.03 1009.61 1010.28 1011.01 1011.76 1012.52 1013.26 1013.97 1014.63 1015.24 1015.81 1016.31 1016.76 1017.14 1017.45 1017.70 1017.86 1017.94 1017.96 1017.92
1010.56 1010.51 1010.34 1010.10 1009.83 1009.61 1009.46 1009.41 1009.47 1009.60 1009.76 1009.92 1010.01 1010.01 1009.89 1009.64 1009.30 1008.90 1008.50 1008.15 1007.90 1007.81 1007.89 1008.16 1008.60 1009.20 1009.91 1010.70 1011.53 1012.36 1013.16 1013.91 1014.61 1015.25 1015.82 1016.33 1016.78 1017.17 1017.48 1017.72 1017.89 1017.98 1018.00 1017.97
1010.74 1010.74 1010.63 1010.43 1010.22 1010.04 1009.94 1009.94 1010.04 1010.21 1010.42 1010.61 1010.72 1010.71 1010.56 1010.27 1009.84 1009.34 1008.82 1008.34 1007.98 1007.79 1007.79 1008.00 1008.42 1009.02 1009.75 1010.58 1011.45 1012.31 1013.14 1013.92 1014.62 1015.26 1015.83 1016.33 1016.77 1017.14 1017.44 1017.68 1017.85 1017.94 1017.97 1017.94
1010.97 1011.05 1011.02 1010.92 1010.78 1010.68 1010.64 1010.68 1010.81 1011.01 1011.22 1011.41 1011.51 1011.48 1011.29 1010.94 1010.46 1009.88 1009.28 1008.72 1008.28 1008.02 1007.97 1008.14 1008.53 1009.12 1009.86 1010.69 1011.56 1012.43 1013.26 1014.03 1014.72 1015.34 1015.88 1016.36 1016.77 1017.13 1017.43 1017.66 1017.83 1017.93 1017.98 1017.97
1011.28 1011.45 1011.52 1011.50 1011.46 1011.42 1011.43 1011.51 1011.65 1011.84 1012.04 1012.20 1012.27 1012.20 1011.98 1011.59 1011.07 1010.45 1009.82 1009.22 1008.75 1008.46 1008.38 1008.53 1008.91 1009.48 1010.20 1011.01 1011.87 1012.71 1013.52 1014.26 1014.92 1015.50 1016.01 1016.46 1016.86 1017.20 1017.49 1017.73 1017.91 1018.04 1018.11 1018.14
1011.72 1011.96 1012.11 1012.17 1012.19 1012.20 1012.24 1012.32 1012.45 1012.61 1012.76 1012.87 1012.89 1012.78 1012.52 1012.12 1011.59 1010.98 1010.35 1009.77 1009.31 1009.03 1008.96 1009.11 1009.47 1010.02 1010.71 1011.49 1012.31 1013.12 1013.87 1014.57 1015.19 1015.73 1016.21 1016.64 1017.02 1017.35 1017.65 1017.91 1018.12 1018.29 1018.40 1018.47
1012.30 1012.59 1012.78 1012.89 1012.94 1012.97 1013.00 1013.05 1013.13 1013.23 1013.32 1013.36 1013.32 1013.17 1012.89 1012.48 1011.97 1011.39 1010.81 1010.28 1009.88 1009.64 1009.59 1009.76 1010.12 1010.65 1011.30 1012.04 1012.80 1013.55 1014.26 1014.90 1015.47 1015.98 1016.43 1016.83 1017.21 1017.56 1017.88 1018.17 1018.43 1018.64 1018.81 1018.93
1013.02 1013.32 1013.52 1013.62 1013.67 1013.67 1013.66 1013.65 1013.66 1013.68 1013.68 1013.65 1013.54 1013.35 1013.05 1012.66 1012.18 1011.67 1011.16 1010.71 1010.38 1010.20 1010.19 1010.38 1010.74 1011.25 1011.87 1012.55 1013.25 1013.93 1014.57 1015.16 1015.68 1016.15 1016.58 1016.98 1017.36 1017.73 1018.08 1018.42 1018.73 1019.00 1019.23 1019.40
1013.84 1014.10 1014.27 1014.34 1014.33 1014.28 1014.20 1014.11 1014.03 1013.96 1013.87 1013.75 1013.59 1013.35 1013.04 1012.67 1012.24 1011.79 1011.36 1011.00 1010.75 1010.63 1010.68 1010.89 1011.24 1011.73 1012.30 1012.92 1013.55 1014.16 1014.74 1015.27 1015.75 1016.19 1016.60 1017.00 1017.39 1017.78 1018.18 1018.56 1018.92 1019.25 1019.53 1019.75
1014.69 1014.89 1014.98 1014.98 1014.90 1014.77 1014.60 1014.43 1014.25 1014.08 1013.90 1013.70 1013.48 1013.21 1012.89 1012.53 1012.15 1011.77 1011.42 1011.14 1010.96 1010.91 1010.99 1011.22 1011.56 1012.01 1012.53 1013.09 1013.65 1014.20 1014.71 1015.18 1015.62 1016.03 1016.43 1016.83 1017.24 1017.66 1018.09 1018.52 1018.93 1019.31 1019.63 1019.89
1015.48 1015.58 1015.58 1015.49 1015.33 1015.11 1014.86 1014.60 1014.33 1014.06 1013.80 1013.53 1013.25 1012.95 1012.62 1012.28 1011.93 1011.60 1011.32 1011.11 1010.99 1010.99 1011.10 1011.33 1011.67 1012.08 1012.55 1013.04 1013.54 1014.02 1014.47 1014.89 1015.29 1015.69 1016.08 1016.48 1016.90 1017.35 1017.80 1018.26 1018.71 1019.12 1019.48 1019.77
1016.12 1016.12 1016.02 1015.84 1015.59 1015.29 1014.96 1014.62 1014.27 1013.93 1013.59 1013.25 1012.91 1012.57 1012.23 1011.89 1011.57 1011.28 1011.05 1010.89 1010.82 1010.85 1010.99 1011.23 1011.54 1011.92 1012.34 1012.78 1013.22 1013.64 1014.04 1014.43 1014.81 1015.18 1015.57 1015.97 1016.41 1016.87 1017.34 1017.82 1018.29 1018.73 1019.11 1019.42
1016.58 1016.47 1016.29 1016.02 1015.69 1015.32 1014.92 1014.51 1014.09 1013.68 1013.27 1012.87 1012.47 1012.09 1011.72 1011.37 1011.06 1010.80 1010.59 1010.48 1010.44 1010.51 1010.66 1010.90 1011.20 1011.56 1011.95 1012.35 1012.74 1013.12 1013.49 1013.85 1014.21 1014.58 1014.96 1015.38 1015.82 1016.29 1016.78 1017.27 1017.75 1018.20 1018.59 1018.91
1016.84 1016.65 1016.38 1016.05 1015.66 1015.23 1014.78 1014.30 1013.83 1013.35 1012.87 1012.41 1011.95 1011.52 1011.11 1010.74 1010.42 1010.16 1009.98 1009.89 1009.88 1009.97 1010.14 1010.39 1010.70 1011.04 1011.41 1011.79 1012.17 1012.53 1012.89 1013.24 1013.59 1013.96 1014.35 1014.77 1015.23 1015.71 1016.20 1016.70 1017.19 1017.64 1018.03 1018.37
1016.97 1016.71 1016.38 1016.00 1015.57 1015.09 1014.60 1014.07 1013.54 1013.00 1012.45 1011.92 1011.40 1010.90 1010.44 1010.04 1009.70 1009.43 1009.26 1009.18 1009.20 1009.31 1009.50 1009.77 1010.09 1010.44 1010.82 1011.19 1011.57 1011.94 1012.29 1012.65 1013.02 1013.40 1013.80 1014.24 1014.70 1015.19 1015.69 1016.19 1016.68 1017.13 1017.53 1017.88
1017.03 1016.73 1016.37 1015.96 1015.50 1015.01 1014.47 1013.91 1013.32 1012.71 1012.10 1011.49 1010.89 1010.32 1009.80 1009.35 1008.98 1008.70 1008.52 1008.45 1008.49 1008.62 1008.84 1009.13 1009.47 1009.85 1010.24 1010.64 1011.03 1011.41 1011.79 1012.17 1012.55 1012.95 1013.38 1013.83 1014.30 1014.79 1015.30 1015.80 1016.28 1016.73 1017.14 1017.50
1017.13 1016.81 1016.44 1016.03 1015.56 1015.05 1014.49 1013.89 1013.26 1012.59 1011.90 1011.21 1010.54 1009.90 1009.32 1008.81 1008.40 1008.09 1007.91 1007.84 1007.89 1008.04 1008.29 1008.61 1008.97 1009.38 1009.79 1010.21 1010.63 1011.03 1011.43 1011.83 1012.24 1012.66 1013.09 1013.55 1014.03 1014.53 1015.03 1015.52 1016.00 1016.46 1016.87 1017.24
1017.32 1017.01 1016.65 1016.25 1015.80 1015.28 1014.72 1014.09 1013.41 1012.69 1011.94 1011.18 1010.44 1009.74 1009.09 1008.54 1008.09 1007.76 1007.56 1007.49 1007.55 1007.72 1007.98 1008.31 1008.70 1009.12 1009.55 1009.99 1010.42 1010.84 1011.26 1011.67 1012.09 1012.52 1012.96 1013.42 1013.89 1014.38 1014.87 1015.35 1015.82 1016.26 1016.67 1017.04
1017.59 1017.31 1016.99 1016.62 1016.19 1015.70 1015.13 1014.50 1013.80 1013.05 1012.26 1011.45 1010.66 1009.91 1009.23 1008.63 1008.16 1007.81 1007.60 1007.52 1007.57 1007.74 1008.00 1008.34 1008.72 1009.14 1009.58 1010.01 1010.44 1010.87 1011.28 1011.69 1012.11 1012.53 1012.96 1013.41 1013.86 1014.32 1014.78 1015.24 1015.68 1016.10 1016.49 1016.86
1017.91 1017.68 1017.40 1017.08 1016.69 1016.23 1015.69 1015.07 1014.37 1013.62 1012.82 1012.00 1011.19 1010.43 1009.73 1009.13 1008.64 1008.28 1008.06 1007.97 1008.02 1008.17 1008.41 1008.72 1009.09 1009.48 1009.89 1010.30 1010.71 1011.11 1011.50 1011.89 1012.28 1012.68 1013.08 1013.49 1013.91 1014.33 1014.75 1015.16 1015.56 1015.94 1016.31 1016.66
1018.20 1018.01 1017.79 1017.52 1017.18 1016.77 1016.27 1015.69 1015.03 1014.31 1013.54 1012.75 1011.97 1011.23 1010.56 1009.97 1009.50 1009.15 1008.92 1008.83 1008.85 1008.97 1009.18 1009.45 1009.76 1010.11 1010.46 1010.83 1011.18 1011.54 1011.89 1012.24 1012.58 1012.94 1013.29 1013.66 1014.02 1014.39 1014.75 1015.10 1015.45 1015.78 1016.11 1016.42
1018.37 1018.23 1018.05 1017.84 1017.56 1017.20 1016.76 1016.25 1015.65 1015.00 1014.30 1013.58 1012.87 1012.20 1011.58 1011.05 1010.62 1010.29 1010.07 1009.97 1009.97 1010.05 1010.21 1010.42 1010.67 1010.94 1011.22 1011.52 1011.81 1012.10 1012.40 1012.69 1012.98 1013.28 1013.59 1013.89 1014.20 1014.50 1014.80 1015.09 1015.37 1015.65 1015.92 1016.19
1018.37 1018.26 1018.13 1017.95 1017.72 1017.43 1017.06 1016.62 1016.12 1015.56 1014.97 1014.36 1013.75 1013.18 1012.66 1012.20 1011.83 1011.55 1011.35 1011.25 1011.22 1011.27 1011.36 1011.50 1011.67 1011.87 1012.07 1012.29 1012.51 1012.73 1012.96 1013.20 1013.44 1013.69 1013.94 1014.19 1014.44 1014.69 1014.92 1015.15 1015.37 1015.59 1015.80 1016.03
1018.22 1018.12 1018.01 1017.86 1017.67 1017.43 1017.14 1016.78 1016.38 1015.93 1015.46 1014.98 1014.50 1014.05 1013.64 1013.28 1012.99 1012.76 1012.59 1012.49 1012.45 1012.45 1012.49 1012.56 1012.65 1012.77 1012.89 1013.03 1013.19 1013.35 1013.53 1013.72 1013.92 1014.13 1014.34 1014.55 1014.76 1014.96 1015.14 1015.32 1015.49 1015.65 1015.82 1016.00
Thickness
5797 5810 5815 5810 5809 5813 5810 5811 5804 5811 5815 5821 5828 5831 5833 5833 5830 5826 5820 5816 5813 5809 5804 5801 5797 5793 5790 5787 5784 5780 5775 5770 5766 5764 5761 5757 5754 5751 5749 5746 5744 5742 5740 5737
5781 5800 5808 5805 5810 5812 5811 5815 5815 5818 5818 5837 5840 5836 5830 5827 5824 5818 5815 5812 5809 5805 5800 5795 5792 5789 5786 5782 5778 5775 5770 5765 5762 5759 5756 5752 5748 5746 5743 5740 5738 5736 5733 5730
5766 5788 5792 5785 5805 5809 5810 5817 5817 5808 5817 5831 5827 5822 5820 5820 5819 5815 5813 5809 5805 5801 5796 5792 5789 5786 5781 5778 5774 5769 5764 5761 5757 5754 5750 5747 5745 5741 5737 5734 5731 5728 5725 5722
5761 5768 5753 5792 5825 5823 5816 5819 5822 5820 5825 5827 5823 5822 5822 5820 5816 5812 5809 5806 5803 5799 5794 5791 5788 5784 5779 5774 5769 5763 5758 5755 5752 5749 5745 5742 5738 5734 5731 5727 5724 5720 5718 5715
5753 5752 5764 5792 5814 5817 5807 5803 5819 5816 5818 5821 5821 5815 5810 5816 5814 5809 5806 5804 5801 5798 5793 5788 5783 5779 5774 5769 5763 5758 5753 5749 5746 5743 5739 5735 5731 5727 5724 5721 5717 5714 5711 5708
5748 5742 5747 5778 5810 5823 5809 5787 5812 5814 5811 5812 5809 5792 5792 5805 5807 5803 5799 5798 5795 5792 5787 5781 5777 5774 5767 5761 5756 5751 5747 5744 5741 5738 5733 5729 5725 5722 5719 5715 5711 5707 5703 5700
5740 5742 5757 5790 5807 5809 5774 5775 5804 5808 5807 5804 5798 5794 5796 5799 5797 5795 5791 5789 5787 5783 5778 5774 5771 5766 5759 5753 5748 5746 5742 5739 5735 5731 5727 5723 5720 5716 5712 5708 5704 5700 5696 5693
5738 5734 5741 5783 5792 5778 5775 5794 5800 5801 5800 5796 5793 5792 5790 5788 5785 5785 5782 5780 5778 5772 5767 5766 5763 5757 5751 5745 5743 5739 5735 5731 5727 5723 5721 5717 5713 5709 5705 5702 5698 5694 5690 5686
5745 5743 5760 5775 5775 5780 5787 5786 5789 5790 5791 5789 5783 5780 5778 5776 5775 5774 5772 5770 5767 5762 5758 5755 5753 5749 5742 5738 5736 5732 5727 5723 5719 5716 5712 5709 5706 5702 5699 5696 5693 5689 5685 5680
5740 5745 5755 5763 5769 5774 5778 5778 5780 5783 5783 5780 5775 5772 5768 5766 5764 5763 5762 5759 5757 5752 5748 5744 5743 5740 5735 5731 5728 5723 5718 5714 5711 5707 5703 5700 5698 5695 5691 5689 5687 5683 5679 5674
5730 5736 5745 5749 5756 5762 5767 5771 5771 5772 5773 5771 5767 5762 5759 5755 5754 5752 5751 5750 5747 5743 5738 5735 5733 5730 5727 5723 5720 5715 5710 5707 5703 5699 5694 5688 5683 5678 5678 5673 5674 5674 5671 5667
5718 5729 5732 5734 5746 5753 5755 5757 5759 5760 5759 5760 5757 5753 5749 5746 5745 5743 5741 5740 5737 5733 5730 5727 5724 5721 5719 5716 5713 5708 5703 5700 5698 5693 5688 5683 5676 5668 5662 5662 5661 5661 5660 5657
5719 5727 5730 5733 5739 5743 5744 5746 5749 5749 5748 5747 5746 5744 5741 5738 5736 5735 5733 5730 5728 5725 5721 5719 5716 5712 5711 5709 5706 5702 5698 5695 5692 5688 5683 5679 5674 5667 5660 5652 5650 5648 5647 5644
5713 5717 5716 5721 5725 5731 5734 5736 5738 5738 5738 5737 5736 5734 5731 5728 5727 5725 5723 5722 5720 5717 5713 5710 5707 5704 5703 5701 5698 5695 5692 5689 5686 5682 5679 5675 5671 5665 5660 5654 5647 5639 5634 5632
5702 5708 5711 5714 5718 5720 5723 5724 5723 5723 5724 5724 5724 5722 5720 5717 5715 5714 5714 5713 5710 5707 5704 5702 5698 5696 5695 5693 5690 5687 5685 5682 5680 5677 5673 5670 5666 5661 5657 5650 5643 5636 5629 5624
5695 5701 5704 5704 5705 5708 5711 5712 5711 5711 5712 5712 5711 5711 5710 5708 5706 5704 5703 5703 5699 5697 5695 5692 5689 5688 5687 5685 5682 5679 5676 5673 5671 5669 5666 5663 5660 5656 5651 5645 5638 5632 5626 5621
5683 5684 5688 5691 5694 5697 5699 5701 5702 5702 5702 5701 5700 5700 5699 5696 5694 5692 5692 5692 5690 5688 5686 5683 5681 5680 5679 5677 5675 5672 5669 5665 5662 5661 5659 5656 5653 5648 5642 5637 5631 5625 5619 5614
5679 5681 5683 5685 5686 5687 5689 5691 5692 5692 5690 5690 5690 5688 5687 5685 5683 5682 5682 5681 5679 5677 5675 5673 5672 5670 5669 5668 5666 5664 5661 5658 5656 5654 5650 5646 5642 5638 5633 5628 5622 5616 5610 5606
5671 5673 5675 5678 5680 5680 5680 5680 5681 5681 5680 5679 5678 5676 5676 5675 5674 5673 5672 5670 5668 5665 5664 5664 5662 5661 5660 5658 5657 5655 5654 5650 5647 5643 5639 5633 5631 5628 5624 5620 5615 5610 5605 5600
5660 5663 5666 5668 5670 5670 5669 5670 5670 5670 5670 5669 5668 5666 5665 5664 5664 5663 5661 5660 5658 5657 5656 5654 5653 5652 5650 5649 5647 5647 5645 5642 5638 5634 5629 5626 5622 5619 5615 5611 5607 5602 5597 5592
5649 5652 5654 5656 5657 5659 5659 5660 5659 5658 5658 5658 5657 5656 5655 5655 5655 5654 5652 5650 5648 5648 5647 5644 5644 5643 5641 5639 5637 5637 5636 5633 5629 5625 5621 5617 5614 5610 5606 5602 5598 5594 5589 5584
5638 5641 5643 5645 5647 5648 5649 5650 5649 5649 5648 5648 5648 5647 5646 5644 5645 5644 5643 5641 5639 5637 5637 5636 5635 5633 5631 5629 5630 5629 5627 5624 5621 5617 5613 5609 5606 5602 5598 5594 5589 5585 5581 5576
5628 5630 5633 5635 5636 5637 5638 5638 5639 5639 5638 5638 5638 5638 5638 5637 5637 5635 5630 5630 5629 5627 5627 5626 5623 5622 5620 5621 5622 5620 5618 5615 5612 5608 5605 5601 5597 5593 5589 5584 5580 5576 5571 5566
5618 5620 5621 5624 5626 5626 5625 5627 5628 5628 5628 5628 5628 5629 5629 5628 5626 5625 5623 5619 5618 5617 5617 5613 5612 5612 5611 5613 5613 5611 5608 5606 5603 5601 5598 5594 5590 5585 5580 5575 5571 5567 5563 5558
5609 5610 5612 5613 5614 5615 5616 5617 5618 5618 5618 5618 5619 5619 5620 5621 5618 5616 5614 5612 5609 5609 5607 5604 5604 5604 5605 5606 5604 5602 5599 5597 5595 5592 5588 5585 5581 5576 5571 5567 5563 5559 5555 5550
5601 5602 5604 5605 5607 5608 5609 5610 5610 5610 5611 5610 5610 5611 5612 5611 5610 5607 5606 5604 5603 5601 5600 5598 5598 5597 5598 5596 5595 5592 5590 5588 5586 5583 5579 5576 5572 5568 5563 5559 5554 5551 5547 5543
5595 5596 5596 5598 5599 5602 5603 5604 5604 5604 5604 5604 5604 5604 5604 5603 5602 5600 5599 5598 5596 5595 5594 5593 5592 5591 5590 5588 5586 5583 5581 5579 5577 5574 5570 5567 5563 5560 5556 5551 5548 5544 5540 5536